This is the latest recevied weather packets stored in our database for station/object KD8BMB. If no packets are shown the sender has not sent any weather packets the latest 10 day(s).
| Time | Temp. | Humidity | Pressure | Rain* | Wind** | Luminosity | Snow |
|---|---|---|---|---|---|---|---|
| 1778025384 | 11.67° C | 47% | 1007 hPa | 0 mm | - | 16 W/m² | - |
| 1778025080 | 11.67° C | 47% | 1006.9 hPa | 0 mm | - | 16 W/m² | - |
| 1778024778 | 11.67° C | 47% | 1006.8 hPa | 0 mm | - | 19 W/m² | - |
| 1778024474 | 11.67° C | 49% | 1006.8 hPa | 0 mm | - | 26 W/m² | - |
| 1778024172 | 11.67° C | 48% | 1006.8 hPa | 0 mm | - | 31 W/m² | - |
| 1778023869 | 11.67° C | 47% | 1006.6 hPa | 0 mm | - | 32 W/m² | - |
| 1778023567 | 12.22° C | 46% | 1006.5 hPa | 0 mm | - | 36 W/m² | - |
| 1778023264 | 12.22° C | 46% | 1006.8 hPa | 0 mm | - | 45 W/m² | - |
| 1778022961 | 12.22° C | 45% | 1006.7 hPa | 0 mm | - | 40 W/m² | - |
| 1778022660 | 12.22° C | 45% | 1006.7 hPa | 0 mm | - | 48 W/m² | - |
| 1778022356 | 12.22° C | 44% | 1006.6 hPa | 0 mm | - | 47 W/m² | - |
| 1778022052 | 12.78° C | 43% | 1006.4 hPa | 0 mm | - | 52 W/m² | - |
| 1778021750 | 12.78° C | 43% | 1006.6 hPa | 0 mm | - | 57 W/m² | - |
| 1778021446 | 12.78° C | 43% | 1006.7 hPa | 0 mm | - | 61 W/m² | - |
| 1778021143 | 12.78° C | 43% | 1006.6 hPa | 0 mm | - | 64 W/m² | - |
| 1778020840 | 12.78° C | 42% | 1006.7 hPa | 0 mm | - | 71 W/m² | - |
| 1778020537 | 12.78° C | 42% | 1006.8 hPa | 0 mm | - | 73 W/m² | - |
| 1778020233 | 12.78° C | 41% | 1007 hPa | 0 mm | - | 77 W/m² | - |
| 1778019929 | 13.33° C | 41% | 1006.7 hPa | 0 mm | - | 86 W/m² | - |
| 1778019626 | 13.33° C | 43% | 1006.7 hPa | 0 mm | - | 95 W/m² | - |
| 1778019323 | 13.33° C | 42% | 1006.6 hPa | 0 mm | - | 102 W/m² | - |
| 1778019020 | 13.33° C | 43% | 1006.5 hPa | 0 mm | - | 105 W/m² | - |
| 1778018717 | 13.33° C | 42% | 1006.7 hPa | 0 mm | - | 117 W/m² | - |
| 1778018415 | 13.33° C | 41% | 1006.8 hPa | 0 mm | - | 127 W/m² | - |
| 1778018113 | 13.33° C | 42% | 1006.7 hPa | 0 mm | - | 136 W/m² | - |
* Rain latest hour (hover to see other rain measurements)
** Current wind speed in m/s (hover to see current wind gust speed)